View from above orbital plane
|
View from above satellite
|
Ground track
|
The orbit data is extracted from the following two-line orbital elements,
1 18586U 87098B 22146.49920051 .00000201 00000-0 76669-4 0 9996
2 18586 74.0064 212.2870 0021357 205.6014 154.4084 14.37047138806197
Epoch (UTC): | 26 May 2022 11:58:50 |
Eccentricity: | 0.0021357 |
inclination: | 74.0064° |
perigee height: | 753 km |
apogee height: | 783 km |
right ascension of ascending node: | 212.2870° |
argument of perigee: | 205.6014° |
revolutions per day: | 14.37047138 |
mean anomaly at epoch: | 154.4084° |
orbit number at epoch: | 80619 |
The dashed part of the orbit path shows where the satellite is in the earth's shadow,
|
|